Flag for U.S.A. Weather past 2 weeks in Des Moines, Iowa, U.S.A.

Now
72 °F

Broken clouds.


Feels Like: 74 °F
Forecast: 37 / 72 °F
Wind: 23 mph from West

Location: Des Moines International Airport

Current Time: Mar 30, 2015 at 3:07:20 PM

Latest Report: Mar 30, 2015 at 1:54 PM


Visibility: 10 mi

Pressure: 29.97 "Hg

Humidity: 16%

Dew point: 23 °F

Location of Des MoinesLocation

Historic Weather in Des Moines — Graph

°F

Des Moines temperature yesterday

Maximum temperature yesterday: 63 °F (at 4:54 PM)
Minimum temperature yesterday: 37 °F (at 2:54 AM)
Average temperature yesterday: 49 °F

Past Weeks' High & Low Weather Summary

 TemperatureHumidityPressure
High84 °F (Mar 16, 3:54 PM)97% (Mar 25, 6:03 AM)30.50 "Hg (Mar 25, 6:03 AM)
Low26 °F (Mar 27, 6:54 AM)13% (Mar 16, 4:54 PM)29.76 "Hg (Mar 16, 4:54 PM)
Average45 °F51%30.12 "Hg
* Reported Mar 15 1:54 PM — Mar 30 1:54 PM, Des Moines, Weather by CustomWeather, © 2015

Note: Actual official high and low records may vary slightly from our data, if they occured in-between our weather recording intervals... More about our weather records

Advertising

Des Moines weather history for previous 24 hours

 ConditionsComfort  
Time TempWeatherWind HumidityBarometerVisibility
1:54 PM
Mon, Mar 30
72 °FBroken clouds.23 mph16%29.97 "Hg10 mi
12:54 PM69 °FBroken clouds.23 mph18%30.01 "Hg10 mi
11:54 AM68 °FMostly cloudy.20 mph17%30.03 "Hg10 mi
10:54 AM63 °FMostly cloudy.20 mph22%30.06 "Hg10 mi
9:54 AM56 °FPassing clouds.13 mph32%30.09 "Hg10 mi
8:54 AM46 °FPassing clouds.6 mph48%30.11 "Hg10 mi
7:54 AM40 °FPassing clouds.6 mph55%30.13 "Hg10 mi
6:54 AM37 °FPassing clouds.5 mph60%30.12 "Hg10 mi
5:54 AM37 °FPassing clouds.3 mph60%30.10 "Hg10 mi
4:54 AM38 °FPassing clouds.6 mph58%30.11 "Hg10 mi
3:54 AM37 °FPassing clouds.6 mph60%30.11 "Hg10 mi
2:54 AM39 °FClear.5 mph53%30.11 "Hg10 mi
1:54 AM43 °FClear.3 mph45%30.11 "Hg10 mi
12:54 AM43 °FClear.5 mph45%30.11 "Hg10 mi
11:54 PM
Sun, Mar 29
45 °FClear.6 mph42%30.11 "Hg10 mi
10:54 PM48 °FClear.8 mph36%30.10 "Hg10 mi
9:54 PM50 °FClear.7 mph33%30.09 "Hg10 mi
8:54 PM54 °FClear.12 mph27%30.05 "Hg10 mi
7:54 PM56 °FPassing clouds.9 mph24%30.02 "Hg10 mi
6:54 PM60 °FSunny.17 mph20%29.98 "Hg10 mi
5:54 PM62 °FPassing clouds.23 mph22%29.95 "Hg10 mi
4:54 PM63 °FPassing clouds.24 mph26%29.93 "Hg10 mi
3:54 PM61 °FScattered clouds.28 mph39%29.92 "Hg10 mi
Weather by CustomWeather, © 2015

See weather overviewHow to use our weather pages